period_start,C,m1,H,J0,J1,J2,J3,J4,J5,JA,JB,JC,JD,JJ,JK,JN,#
2013-10-15 00:00:36,0.02,1.59,0.00,25.04,26.75,29.38,5.97,29.79,1005.87,2049.00,2890.83,2896.00,3144.01,350.52,318.82,33.22,0000 0000 0000 0000 000000
2013-10-15 00:01:36,0.04,1.59,0.00,25.03,26.75,29.37,5.75,29.75,1005.87,2049.00,2890.60,2895.99,3144.00,349.62,317.59,33.23,0000 0000 0000 0000 000000
2013-10-15 00:02:36,0.04,1.59,0.00,25.03,26.75,29.41,6.04,29.67,1005.87,2049.00,2890.32,2895.97,3143.99,350.25,318.58,33.24,0000 0000 0000 0000 000000
2013-10-15 00:03:37,0.05,1.59,0.00,25.04,26.76,29.44,5.77,29.67,1005.87,2049.00,2890.12,2895.74,3143.81,350.37,318.51,33.24,0000 0000 0000 0000 000000
2013-10-15 00:04:37,0.13,1.59,0.00,25.04,26.76,29.38,5.72,29.67,1005.87,2049.00,2890.03,2895.33,3143.40,349.53,317.88,33.25,0000 0000 0000 0000 000000
2013-10-15 00:05:37,0.15,1.60,0.00,25.04,26.77,29.42,6.00,29.75,1005.87,2049.00,2889.98,2895.15,3143.16,350.91,318.87,33.25,0000 0000 0000 0000 000000
2013-10-15 00:06:38,0.09,1.60,0.00,25.03,26.77,29.40,5.96,29.75,1005.87,2049.00,2889.92,2895.06,3143.05,350.36,318.80,33.26,0000 0000 0000 0000 000000
2013-10-15 00:07:38,0.05,1.60,0.00,25.02,26.77,29.43,5.79,29.83,1005.87,2049.00,2889.63,2895.02,3143.01,349.66,318.06,33.27,0000 0000 0000 0000 000000
2013-10-15 00:08:38,0.06,1.60,0.00,25.04,26.77,29.47,5.93,29.79,1005.86,2049.00,2889.25,2895.00,3143.00,350.51,318.82,33.27,0000 0000 0000 0000 000000
2013-10-15 00:09:39,0.05,1.60,0.00,25.06,26.77,29.37,5.91,29.79,1005.82,2049.00,2889.09,2894.99,3142.97,349.40,317.93,33.28,0000 0000 0000 0000 000000
2013-10-15 00:10:39,0.03,1.60,0.00,25.05,26.77,29.46,5.85,29.67,1005.71,2049.00,2889.03,2894.97,3142.95,351.00,319.19,33.28,0000 0000 0000 0000 000000
2013-10-15 00:11:39,0.01,1.60,0.00,25.03,26.77,29.41,5.96,29.79,1005.74,2049.01,2888.98,2894.93,3142.89,350.44,318.30,33.29,0000 0000 0000 0000 000000
2013-10-15 00:12:39,0.06,1.60,0.00,25.02,26.77,29.43,5.72,29.63,1005.70,2049.02,2888.76,2894.83,3142.54,349.56,317.72,33.30,0000 0000 0000 0000 000000
2013-10-15 00:13:40,0.10,1.60,0.00,25.02,26.77,29.47,5.86,29.71,1005.55,2049.02,2888.61,2894.60,3142.35,350.13,318.03,33.30,0000 0000 0000 0000 000000
2013-10-15 00:14:40,0.13,1.60,0.00,25.02,26.77,29.42,5.58,29.63,1005.55,2049.01,2888.29,2894.28,3142.15,349.20,317.53,33.31,0000 0000 0000 0000 000000
2013-10-15 00:15:40,0.13,1.60,0.00,25.04,26.77,29.45,6.07,30.13,1005.51,2049.01,2888.10,2894.11,3142.06,351.23,319.67,33.31,0000 0000 0000 0000 000000
2013-10-15 00:16:41,0.08,1.60,0.00,25.05,26.77,29.47,5.98,29.79,1005.48,2049.00,2888.03,2894.05,3142.02,350.48,318.52,33.32,0000 0000 0000 0000 000000
2013-10-15 00:17:41,0.02,1.60,0.00,25.02,26.77,29.46,5.69,29.67,1005.43,2049.00,2887.98,2894.02,3142.00,349.09,317.41,33.32,0000 0000 0000 0000 000000
2013-10-15 00:18:41,0.02,1.60,0.00,25.03,26.77,29.47,5.74,29.63,1005.42,2049.00,2887.86,2894.00,3141.98,349.28,317.57,33.33,0000 0000 0000 0000 000000
2013-10-15 00:19:41,0.02,1.60,0.00,25.02,26.77,29.47,5.81,29.58,1005.42,2049.00,2887.67,2893.99,3141.94,349.70,317.95,33.34,0000 0000 0000 0000 000000
2013-10-15 00:20:42,0.05,1.60,0.00,25.02,26.77,29.46,5.84,29.75,1005.41,2049.00,2887.37,2893.96,3141.71,350.80,319.38,33.34,0000 0000 0000 0000 000000
2013-10-15 00:21:42,0.09,1.60,0.00,25.03,26.77,29.44,5.79,29.71,1005.41,2049.00,2887.16,2893.87,3141.35,349.78,318.02,33.35,0000 0000 0000 0000 000000
2013-10-15 00:22:42,0.11,1.60,0.00,25.06,26.77,29.50,5.64,29.58,1005.40,2049.00,2887.05,2893.58,3141.17,348.56,317.16,33.35,0000 0000 0000 0000 000000
2013-10-15 00:23:43,0.11,1.60,0.00,25.09,26.77,29.44,5.78,29.67,1005.39,2049.00,2887.02,2893.28,3141.07,349.59,317.63,33.36,0000 0000 0000 0000 000000
2013-10-15 00:24:43,0.09,1.60,0.00,25.09,26.78,29.45,5.77,29.75,1005.39,2049.00,2886.96,2893.12,3141.02,350.14,318.63,33.37,0000 0000 0000 0000 000000
2013-10-15 00:25:43,0.05,1.60,0.00,25.07,26.78,29.41,6.02,29.88,1005.39,2049.00,2886.80,2893.06,3141.00,350.19,318.32,33.37,0000 0000 0000 0000 000000
2013-10-15 00:26:43,0.05,1.60,0.00,25.07,26.78,29.42,5.95,29.88,1005.39,2049.00,2886.39,2893.02,3140.99,350.81,318.91,33.38,0000 0000 0000 0000 000000
2013-10-15 00:27:43,0.08,1.60,0.00,25.09,26.79,29.49,5.68,29.75,1005.39,2049.00,2886.15,2893.00,3140.88,349.54,317.82,33.38,0000 0000 0000 0000 000000
2013-10-15 00:28:44,0.05,1.61,0.00,25.09,26.79,29.41,5.70,29.63,1005.39,2049.00,2886.05,2893.00,3140.60,350.34,318.45,33.39,0000 0000 0000 0000 000000
2013-10-15 00:29:44,0.07,1.61,0.00,25.08,26.79,29.45,5.87,29.54,1005.39,2049.00,2885.99,2892.96,3140.28,350.54,318.64,33.40,0000 0000 0000 0000 000000
2013-10-15 00:30:44,0.05,1.61,0.00,25.05,26.79,29.47,5.90,29.67,1005.39,2049.00,2885.92,2892.78,3140.15,350.86,318.96,33.40,0000 0000 0000 0000 000000
2013-10-15 00:31:44,0.11,1.61,0.00,25.07,26.80,29.52,5.99,29.92,1005.39,2049.00,2885.81,2892.49,3140.06,350.60,318.71,33.41,0000 0000 0000 0000 000000
2013-10-15 00:32:45,0.10,1.61,0.00,25.06,26.80,29.49,5.99,29.96,1005.39,2049.00,2885.40,2892.21,3140.02,350.72,318.79,33.41,0000 0000 0000 0000 000000
2013-10-15 00:33:45,0.13,1.61,0.00,25.07,26.80,29.41,5.76,29.79,1005.39,2049.00,2885.16,2892.08,3140.00,350.22,318.05,33.42,0000 0000 0000 0000 000000
2013-10-15 00:34:45,0.06,1.61,0.00,25.07,26.80,29.44,5.74,29.71,1005.39,2049.00,2885.05,2892.03,3139.99,349.38,317.76,33.42,0000 0000 0000 0000 000000
2013-10-15 00:35:45,0.02,1.61,0.00,25.04,26.80,29.43,5.99,29.96,1005.39,2049.00,2885.02,2892.01,3139.98,350.44,318.04,33.43,0000 0000 0000 0000 000000
2013-10-15 00:36:45,0.00,1.61,0.00,25.05,26.80,29.50,5.73,29.83,1005.40,2049.00,2884.99,2892.00,3139.88,349.44,317.50,33.44,0000 0000 0000 0000 000000
2013-10-15 00:37:46,0.03,1.61,0.00,25.05,26.80,29.43,5.94,29.83,1005.39,2049.00,2884.93,2891.99,3139.47,349.61,317.83,33.44,0000 0000 0000 0000 000000
2013-10-15 00:38:46,0.07,1.61,0.00,25.07,26.80,29.44,6.03,30.08,1005.39,2049.00,2884.76,2891.98,3139.23,350.56,319.03,33.45,0000 0000 0000 0000 000000
2013-10-15 00:39:46,0.06,1.61,0.00,25.04,26.80,29.49,6.00,29.92,1005.39,2049.00,2884.53,2891.97,3139.10,350.48,318.77,33.45,0000 0000 0000 0000 000000
2013-10-15 00:40:46,0.06,1.61,0.00,25.06,26.80,29.47,5.79,29.79,1005.39,2049.00,2884.22,2891.83,3139.05,349.66,317.69,33.46,0000 0000 0000 0000 000000
2013-10-15 00:41:47,0.10,1.61,0.00,25.08,26.80,29.48,5.80,29.96,1005.39,2049.00,2884.09,2891.44,3139.01,349.56,318.33,33.47,0000 0000 0000 0000 000000
2013-10-15 00:42:47,0.12,1.61,0.00,25.09,26.80,29.45,5.77,29.92,1005.39,2049.00,2884.03,2891.19,3139.00,349.61,317.84,33.47,0000 0000 0000 0000 000000
2013-10-15 00:43:47,0.05,1.61,0.00,25.08,26.80,29.45,5.97,30.00,1005.39,2049.00,2884.00,2891.08,3139.00,350.08,318.70,33.48,0000 0000 0000 0000 000000
2013-10-15 00:44:47,0.03,1.61,0.00,25.08,26.80,29.48,5.73,29.88,1005.39,2049.00,2884.00,2891.03,3139.00,349.88,318.20,33.48,0000 0000 0000 0000 000000
2013-10-15 00:45:48,0.01,1.61,0.00,25.08,26.80,29.52,5.86,29.79,1005.39,2049.00,2884.00,2891.01,3138.91,351.19,318.62,33.49,0000 0000 0000 0000 000000
2013-10-15 00:46:48,0.02,1.61,0.00,25.10,26.80,29.46,5.92,29.75,1005.39,2049.00,2883.69,2891.00,3138.54,350.73,318.80,33.49,0000 0000 0000 0000 000000
2013-10-15 00:47:48,0.11,1.61,0.00,25.08,26.80,29.52,6.02,29.75,1005.39,2049.00,2883.29,2890.99,3138.25,350.50,318.60,33.50,0000 0000 0000 0000 000000
2013-10-15 00:48:48,0.10,1.61,0.00,25.09,26.80,29.46,5.58,29.75,1005.39,2049.00,2883.11,2890.87,3138.09,348.32,316.62,33.51,0000 0000 0000 0000 000000
2013-10-15 00:49:49,0.09,1.61,0.00,25.08,26.80,29.47,5.80,29.79,1005.39,2049.00,2883.04,2890.56,3138.03,349.94,318.32,33.51,0000 0000 0000 0000 000000
2013-10-15 00:50:49,0.10,1.61,0.00,25.08,26.80,29.48,5.93,29.83,1005.39,2048.99,2883.00,2890.29,3138.01,350.25,318.38,33.52,0000 0000 0000 0000 000000
2013-10-15 00:51:49,0.06,1.61,0.00,25.11,26.81,29.52,6.07,29.79,1005.39,2048.99,2882.98,2890.13,3138.00,351.32,319.53,33.52,0000 0000 0000 0000 000000
2013-10-15 00:52:50,0.03,1.61,0.00,25.13,26.81,29.49,6.02,29.96,1005.39,2048.99,2882.95,2890.06,3137.98,350.45,318.70,33.53,0000 0000 0000 0000 000000
2013-10-15 00:53:50,0.02,1.62,0.00,25.11,26.82,29.54,5.52,29.79,1005.38,2048.99,2882.73,2890.03,3137.92,348.77,317.36,33.54,0000 0000 0000 0000 000000
2013-10-15 00:54:50,0.05,1.62,0.00,25.09,26.82,29.52,5.86,29.83,1005.37,2048.99,2882.39,2889.99,3137.64,350.41,318.52,33.54,0000 0000 0000 0000 000000
2013-10-15 00:55:50,0.11,1.62,0.00,25.10,26.82,29.49,6.01,30.00,1005.37,2048.99,2882.17,2889.99,3137.28,350.35,318.02,33.55,0000 0000 0000 0000 000000
2013-10-15 00:56:51,0.08,1.62,0.00,25.08,26.82,29.43,5.63,29.83,1005.38,2048.99,2882.06,2889.96,3137.10,349.62,318.10,33.55,0000 0000 0000 0000 000000
2013-10-15 00:57:51,0.05,1.62,0.00,25.09,26.82,29.45,5.90,29.92,1005.37,2048.99,2882.01,2889.79,3137.03,350.60,318.68,33.56,0000 0000 0000 0000 000000
2013-10-15 00:58:51,0.07,1.62,0.00,25.09,26.82,29.50,5.88,29.83,1005.38,2048.98,2881.92,2889.45,3137.01,350.35,318.46,33.57,0000 0000 0000 0000 000000
2013-10-15 00:59:51,0.08,1.62,0.00,25.11,26.82,29.50,5.87,30.04,1005.35,2048.99,2881.69,2889.26,3137.00,349.84,318.03,33.57,0000 0000 0000 0000 000000
2013-10-15 01:00:52,0.11,1.62,0.00,25.11,26.82,29.45,5.87,29.75,1005.36,2048.99,2881.33,2889.13,3136.99,350.32,318.59,33.58,0000 0000 0000 0000 000000
2013-10-15 01:01:52,0.08,1.62,0.00,25.10,26.82,29.46,5.88,29.67,1005.37,2048.99,2881.12,2889.05,3136.88,350.38,318.01,33.58,0000 0000 0000 0000 000000
2013-10-15 01:02:52,0.07,1.62,0.00,25.09,26.82,29.55,5.63,29.71,1005.36,2048.97,2881.04,2889.01,3136.52,349.73,317.67,33.59,0000 0000 0000 0000 000000
2013-10-15 01:03:52,0.05,1.62,0.00,25.11,26.82,29.51,6.08,29.96,1005.37,2048.97,2881.01,2889.00,3136.23,350.63,318.51,33.59,0000 0000 0000 0000 000000
2013-10-15 01:04:53,0.04,1.62,0.00,25.11,26.82,29.51,5.76,29.75,1005.39,2048.97,2880.94,2888.97,3136.10,351.23,319.25,33.60,0000 0000 0000 0000 000000
2013-10-15 01:05:53,0.02,1.62,0.00,25.11,26.82,29.51,5.99,29.88,1005.38,2048.96,2880.57,2888.85,3136.03,349.95,318.08,33.61,0000 0000 0000 0000 000000
2013-10-15 01:06:53,0.09,1.62,0.00,25.10,26.82,29.52,6.02,29.83,1005.36,2048.97,2880.22,2888.58,3136.00,350.41,318.49,33.61,0000 0000 0000 0000 000000
2013-10-15 01:07:53,0.15,1.62,0.00,25.11,26.82,29.50,5.97,30.00,1005.38,2048.97,2880.08,2888.33,3135.99,350.07,318.18,33.62,0000 0000 0000 0000 000000
2013-10-15 01:08:54,0.06,1.62,0.00,25.12,26.82,29.44,5.78,29.75,1005.38,2048.98,2880.01,2888.15,3135.89,349.84,317.96,33.62,0000 0000 0000 0000 000000
2013-10-15 01:09:54,0.09,1.62,0.00,25.10,26.82,29.50,5.80,29.75,1005.39,2048.97,2879.95,2888.05,3135.49,349.68,317.84,33.63,0000 0000 0000 0000 000000
2013-10-15 01:10:54,0.07,1.62,0.00,25.09,26.83,29.46,5.74,29.71,1005.39,2048.97,2879.73,2888.02,3135.19,349.85,318.00,33.64,0000 0000 0000 0000 000000
2013-10-15 01:11:54,0.10,1.62,0.00,25.11,26.83,29.49,5.69,29.79,1005.38,2048.97,2879.36,2888.00,3135.07,349.46,317.71,33.64,0000 0000 0000 0000 000000
2013-10-15 01:12:55,0.08,1.62,0.00,25.12,26.83,29.47,6.00,30.04,1005.39,2048.97,2879.13,2887.96,3135.02,350.43,318.38,33.65,0000 0000 0000 0000 000000
2013-10-15 01:13:55,0.05,1.62,0.00,25.12,26.84,29.46,5.93,29.96,1005.39,2048.97,2879.05,2887.83,3135.00,350.49,318.73,33.65,0000 0000 0000 0000 000000
2013-10-15 01:14:55,0.06,1.63,0.00,25.12,26.84,29.47,5.93,30.00,1005.38,2048.95,2879.01,2887.57,3135.00,350.28,318.36,33.66,0000 0000 0000 0000 000000
2013-10-15 01:15:55,0.05,1.63,0.00,25.13,26.84,29.45,6.08,29.96,1005.38,2048.95,2879.00,2887.38,3135.00,350.79,318.71,33.66,0000 0000 0000 0000 000000
2013-10-15 01:16:55,0.06,1.63,0.00,25.14,26.85,29.47,5.73,29.83,1005.39,2048.95,2878.93,2887.17,3134.99,349.69,317.99,33.67,0000 0000 0000 0000 000000
2013-10-15 01:17:55,0.06,1.63,0.00,25.15,26.85,29.53,5.67,29.71,1005.39,2048.94,2878.56,2887.06,3134.79,348.82,317.00,33.68,0000 0000 0000 0000 000000
2013-10-15 01:18:56,0.10,1.63,0.00,25.17,26.85,29.52,5.72,29.83,1005.39,2048.92,2878.22,2887.02,3134.36,350.64,319.17,33.68,0000 0000 0000 0000 000000
2013-10-15 01:19:56,0.11,1.63,0.00,25.14,26.85,29.46,5.92,29.92,1005.39,2048.93,2878.08,2886.99,3134.14,349.55,317.20,33.69,0000 0000 0000 0000 000000
2013-10-15 01:20:56,0.07,1.63,0.00,25.15,26.85,29.50,6.03,30.04,1005.39,2048.95,2878.03,2886.96,3134.05,350.78,319.00,33.69,0000 0000 0000 0000 000000
2013-10-15 01:21:56,0.01,1.63,0.00,25.15,26.85,29.50,5.96,30.00,1005.39,2048.96,2877.99,2886.89,3134.01,350.64,318.61,33.70,0000 0000 0000 0000 000000
2013-10-15 01:22:57,0.05,1.63,0.00,25.13,26.85,29.50,5.97,29.96,1005.39,2048.96,2877.80,2886.58,3134.00,350.26,317.66,33.71,0000 0000 0000 0000 000000
2013-10-15 01:23:57,0.13,1.63,0.00,25.12,26.85,29.49,6.03,30.04,1005.39,2048.95,2877.56,2886.31,3133.98,350.44,318.66,33.71,0000 0000 0000 0000 000000
2013-10-15 01:24:57,0.10,1.63,0.00,25.13,26.85,29.46,5.69,29.88,1005.39,2048.96,2877.23,2886.14,3133.92,349.52,317.58,33.72,0000 0000 0000 0000 000000
2013-10-15 01:25:57,0.11,1.63,0.00,25.13,26.85,29.47,5.67,29.71,1005.39,2048.95,2877.08,2886.06,3133.63,349.96,317.74,33.72,0000 0000 0000 0000 000000
2013-10-15 01:26:57,0.07,1.63,0.00,25.15,26.85,29.54,5.62,29.92,1005.39,2048.95,2877.01,2886.02,3133.27,349.35,317.84,33.73,0000 0000 0000 0000 000000
2013-10-15 01:27:58,0.06,1.63,0.00,25.13,26.85,29.51,6.00,30.00,1005.38,2048.90,2876.84,2886.00,3133.11,350.71,318.75,33.73,0000 0000 0000 0000 000000
2013-10-15 01:28:58,0.02,1.63,0.00,25.14,26.85,29.50,5.77,29.79,1005.36,2048.90,2876.41,2885.99,3133.04,350.53,318.49,33.74,0000 0000 0000 0000 000000
2013-10-15 01:29:58,0.08,1.63,0.00,25.17,26.85,29.49,5.90,30.00,1005.35,2048.89,2876.14,2885.78,3133.01,349.92,317.98,33.75,0000 0000 0000 0000 000000
2013-10-15 01:30:58,0.10,1.63,0.00,25.14,26.85,29.53,6.13,30.04,1005.36,2048.90,2876.05,2885.46,3132.98,350.67,318.68,33.75,0000 0000 0000 0000 000000
2013-10-15 01:31:58,0.12,1.63,0.00,25.13,26.86,29.49,5.77,29.79,1005.35,2048.90,2876.01,2885.20,3132.89,349.22,317.38,33.76,0000 0000 0000 0000 000000
2013-10-15 01:32:59,0.06,1.63,0.00,25.17,26.87,29.54,5.67,29.92,1005.34,2048.85,2875.99,2885.08,3132.60,349.65,317.73,33.76,0000 0000 0000 0000 000000
2013-10-15 01:33:59,0.03,1.63,0.00,25.18,26.87,29.56,6.16,29.88,1005.31,2048.80,2875.75,2885.03,3132.25,350.87,318.81,33.77,0000 0000 0000 0000 000000
2013-10-15 01:34:59,0.10,1.63,0.00,25.17,26.87,29.52,6.04,29.79,1005.30,2048.81,2875.35,2885.01,3132.12,350.83,318.79,33.78,0000 0000 0000 0000 000000
2013-10-15 01:35:59,0.05,1.63,0.00,25.19,26.87,29.57,6.09,30.04,1005.29,2048.89,2875.13,2885.00,3132.05,351.35,319.19,33.78,0000 0000 0000 0000 000000
2013-10-15 01:37:00,0.12,1.64,0.00,25.16,26.87,29.54,5.59,29.67,1005.26,2048.88,2875.06,2884.99,3132.01,349.04,317.33,33.79,0000 0000 0000 0000 000000
2013-10-15 01:38:00,0.00,1.64,0.00,25.15,26.87,29.52,5.82,30.00,1005.28,2048.85,2875.02,2884.92,3132.00,349.62,317.69,33.79,0000 0000 0000 0000 000000
2013-10-15 01:39:00,-0.02,1.64,0.00,25.16,26.87,29.53,6.02,30.00,1005.27,2048.77,2875.00,2884.66,3131.99,350.60,318.88,33.80,0000 0000 0000 0000 000000
2013-10-15 01:40:00,0.03,1.64,0.00,25.16,26.87,29.50,6.02,29.96,1005.21,2048.71,2874.67,2884.33,3131.71,350.70,318.65,33.81,0000 0000 0000 0000 000000
2013-10-15 01:41:00,0.14,1.64,0.00,25.17,26.87,29.52,5.63,29.83,1005.22,2048.67,2874.28,2884.13,3131.30,348.90,317.08,33.81,0000 0000 0000 0000 000000
2013-10-15 01:42:01,0.13,1.64,0.00,25.17,26.87,29.52,5.90,29.83,1005.18,2048.54,2874.10,2884.04,3131.11,349.99,318.22,33.82,0000 0000 0000 0000 000000
2013-10-15 01:43:01,-0.01,1.64,0.00,25.16,26.87,29.59,5.72,29.96,1005.15,2048.54,2874.00,2884.00,3131.04,349.14,317.21,33.82,0000 0000 0000 0000 000000
2013-10-15 01:44:01,0.00,1.64,0.00,25.18,26.87,29.51,5.86,29.92,1005.17,2048.53,2873.62,2883.98,3131.00,350.07,318.05,33.83,0000 0000 0000 0000 000000
2013-10-15 01:45:01,0.10,1.64,0.00,25.18,26.87,29.52,5.82,29.92,1005.17,2048.44,2873.28,2883.94,3130.97,350.28,318.23,33.83,0000 0000 0000 0000 000000
2013-10-15 01:46:02,-0.01,1.64,0.00,25.18,26.87,29.59,5.82,29.88,1005.18,2048.42,2873.11,2883.70,3130.93,349.41,317.65,33.84,0000 0000 0000 0000 000000
2013-10-15 01:47:02,0.04,1.64,0.00,25.18,26.88,29.55,5.84,29.88,1005.19,2048.55,2873.05,2883.42,3130.70,349.55,317.56,33.85,0000 0000 0000 0000 000000
2013-10-15 01:48:02,0.27,1.64,0.00,25.18,26.88,29.57,5.73,29.83,1005.20,2048.66,2873.01,2883.24,3130.34,350.25,318.22,33.85,0000 0000 0000 0000 000000
2013-10-15 01:49:02,0.22,1.64,0.00,25.18,26.89,29.54,6.06,29.88,1005.22,2048.51,2872.96,2883.09,3130.13,350.99,318.98,33.86,0000 0000 0000 0000 000000
2013-10-15 01:50:03,-0.11,1.64,0.00,25.19,26.89,29.49,5.96,29.88,1005.18,2048.50,2872.82,2883.03,3130.05,350.71,319.14,33.86,0000 0000 0000 0000 000000
2013-10-15 01:51:03,0.09,1.64,0.00,25.17,26.89,29.52,5.77,29.67,1005.07,2048.42,2872.41,2883.00,3130.01,349.40,317.89,33.87,0000 0000 0000 0000 000000
2013-10-15 01:52:03,0.04,1.64,0.00,25.18,26.90,29.58,5.77,29.83,1005.03,2048.43,2872.15,2883.00,3129.99,349.38,317.37,33.88,0000 0000 0000 0000 000000
2013-10-15 01:53:03,0.01,1.64,0.00,25.17,26.90,29.51,5.85,29.71,1004.94,2048.37,2872.06,2882.97,3129.88,350.11,318.02,33.88,0000 0000 0000 0000 000000
2013-10-15 01:54:04,0.01,1.64,0.00,25.18,26.90,29.61,5.99,29.75,1004.94,2048.37,2872.01,2882.77,3129.74,350.86,318.95,33.89,0000 0000 0000 0000 000000
2013-10-15 01:55:04,0.10,1.64,0.00,25.17,26.90,29.55,5.88,29.79,1004.95,2048.39,2871.98,2882.39,3129.42,349.88,317.82,33.89,0000 0000 0000 0000 000000
2013-10-15 01:56:04,0.17,1.64,0.00,25.18,26.90,29.53,5.68,29.75,1004.93,2048.34,2871.90,2882.19,3129.17,349.51,317.45,33.90,0000 0000 0000 0000 000000
2013-10-15 01:57:04,0.01,1.64,0.00,25.18,26.90,29.49,5.77,29.75,1004.93,2048.17,2871.46,2882.07,3129.06,349.71,317.73,33.90,0000 0000 0000 0000 000000
2013-10-15 01:58:05,-0.00,1.64,0.00,25.21,26.90,29.56,5.63,29.67,1004.93,2048.18,2871.17,2882.02,3129.02,350.65,318.00,33.91,0000 0000 0000 0000 000000
2013-10-15 01:59:05,0.08,1.64,0.00,25.19,26.90,29.53,5.88,29.63,1004.93,2048.21,2871.06,2882.00,3129.00,350.31,318.17,33.92,0000 0000 0000 0000 000000
2013-10-15 02:00:05,0.06,1.64,0.00,25.19,26.90,29.56,5.78,29.58,1004.93,2048.23,2871.01,2882.00,3128.97,349.70,317.90,33.92,0000 0000 0000 0000 000000
2013-10-15 02:01:05,0.04,1.64,0.00,25.20,26.90,29.57,5.71,29.67,1004.90,2048.21,2870.84,2881.93,3128.75,349.51,317.46,33.93,0000 0000 0000 0000 000000
2013-10-15 02:02:05,0.04,1.64,0.00,25.20,26.90,29.57,6.02,29.83,1004.93,2048.16,2870.46,2881.75,3128.42,350.26,317.94,33.93,0000 0000 0000 0000 000000
2013-10-15 02:03:06,0.12,1.64,0.00,25.19,26.90,29.53,5.99,29.88,1004.91,2048.17,2870.18,2881.40,3128.22,350.14,318.22,33.94,0000 0000 0000 0000 000000
2013-10-15 02:04:06,0.19,1.65,0.00,25.19,26.91,29.53,5.98,29.79,1004.91,2048.20,2870.06,2881.17,3128.09,350.68,318.71,33.95,0000 0000 0000 0000 000000
2013-10-15 02:05:06,0.07,1.65,0.00,25.20,26.92,29.55,5.98,29.92,1004.91,2048.18,2870.02,2881.07,3128.03,350.24,318.31,33.95,0000 0000 0000 0000 000000
2013-10-15 02:06:06,0.04,1.65,0.00,25.24,26.92,29.57,5.72,29.79,1004.90,2048.14,2869.88,2881.02,3128.01,349.59,317.53,33.96,0000 0000 0000 0000 000000
2013-10-15 02:07:07,0.01,1.65,0.00,25.24,26.92,29.51,5.77,29.63,1004.91,2048.09,2869.70,2881.00,3128.00,349.59,317.46,33.96,0000 0000 0000 0000 000000
2013-10-15 02:08:07,-0.01,1.65,0.00,25.22,26.92,29.60,5.95,29.83,1004.90,2048.06,2869.38,2881.00,3127.95,350.22,318.05,33.97,0000 0000 0000 0000 000000
2013-10-15 02:09:07,0.06,1.65,0.00,25.22,26.92,29.56,5.88,29.88,1004.90,2048.07,2869.14,2880.95,3127.67,349.94,317.80,33.97,0000 0000 0000 0000 000000
2013-10-15 02:10:07,0.12,1.65,0.00,25.22,26.92,29.63,5.64,29.63,1004.90,2048.10,2869.05,2880.90,3127.39,349.79,317.95,33.98,0000 0000 0000 0000 000000
2013-10-15 02:11:07,0.07,1.65,0.00,25.22,26.92,29.58,5.72,29.71,1004.90,2048.15,2869.00,2880.60,3127.17,349.43,317.29,33.99,0000 0000 0000 0000 000000
2013-10-15 02:12:07,0.17,1.65,0.00,25.22,26.92,29.55,6.05,29.83,1004.90,2048.12,2868.94,2880.24,3127.06,350.07,318.37,33.99,0000 0000 0000 0000 000000
2013-10-15 02:13:07,0.08,1.65,0.00,25.23,26.92,29.59,5.72,29.75,1004.90,2048.08,2868.72,2880.09,3127.02,349.62,317.63,34.00,0000 0000 0000 0000 000000
2013-10-15 02:14:08,0.04,1.65,0.00,25.24,26.92,29.56,6.02,29.71,1004.90,2048.07,2868.36,2880.04,3127.00,351.25,319.10,34.00,0000 0000 0000 0000 000000
2013-10-15 02:15:08,0.06,1.65,0.00,25.26,26.92,29.67,5.70,29.79,1004.90,2048.07,2868.14,2880.01,3126.88,349.71,317.66,34.01,0000 0000 0000 0000 000000
2013-10-15 02:16:08,0.07,1.65,0.00,25.25,26.92,29.64,5.67,29.75,1004.90,2048.04,2868.05,2880.00,3126.55,348.98,316.89,34.02,0000 0000 0000 0000 000000
2013-10-15 02:17:08,0.02,1.65,0.00,25.23,26.92,29.56,5.68,29.79,1004.90,2048.02,2868.00,2879.97,3126.28,349.13,317.51,34.02,0000 0000 0000 0000 000000
2013-10-15 02:18:09,0.05,1.65,0.00,25.25,26.93,29.54,5.80,29.75,1004.89,2048.01,2867.87,2879.77,3126.10,350.99,318.71,34.03,0000 0000 0000 0000 000000
2013-10-15 02:19:09,0.09,1.65,0.00,25.24,26.93,29.64,5.89,29.83,1004.87,2048.03,2867.56,2879.43,3126.03,350.19,317.99,34.03,0000 0000 0000 0000 000000
2013-10-15 02:20:09,0.16,1.65,0.00,25.23,26.94,29.61,5.72,29.79,1004.84,2048.08,2867.28,2879.22,3126.01,349.59,317.44,34.04,0000 0000 0000 0000 000000
2013-10-15 02:21:10,0.13,1.65,0.00,25.24,26.94,29.67,6.07,30.08,1004.82,2048.04,2867.10,2879.09,3126.00,350.44,318.21,34.05,0000 0000 0000 0000 000000
2013-10-15 02:22:10,0.04,1.65,0.00,25.25,26.95,29.57,5.92,29.75,1004.84,2048.03,2867.03,2879.03,3125.96,349.75,317.47,34.05,0000 0000 0000 0000 000000
2013-10-15 02:23:10,0.02,1.65,0.00,25.26,26.95,29.59,6.07,29.96,1004.85,2048.01,2866.97,2879.01,3125.86,351.02,318.63,34.06,0000 0000 0000 0000 000000
2013-10-15 02:24:10,0.01,1.65,0.00,25.24,26.95,29.60,6.03,29.88,1004.80,2048.01,2866.84,2879.00,3125.56,350.79,318.51,34.06,0000 0000 0000 0000 000000
2013-10-15 02:25:11,0.06,1.65,0.00,25.26,26.95,29.61,5.52,29.75,1004.82,2048.01,2866.53,2879.00,3125.24,348.67,316.57,34.07,0000 0000 0000 0000 000000
2013-10-15 02:26:11,0.11,1.65,0.00,25.27,26.95,29.60,5.94,30.00,1004.85,2048.01,2866.19,2878.97,3125.09,349.44,317.26,34.07,0000 0000 0000 0000 000000
2013-10-15 02:27:11,0.08,1.66,0.00,25.28,26.95,29.63,5.87,29.79,1004.78,2048.04,2866.07,2878.90,3125.03,350.47,318.18,34.08,0000 0000 0000 0000 000000
2013-10-15 02:28:11,0.07,1.66,0.00,25.30,26.95,29.58,5.73,29.96,1004.75,2048.06,2866.00,2878.72,3125.01,349.70,317.46,34.09,0000 0000 0000 0000 000000
2013-10-15 02:29:12,0.08,1.66,0.00,25.30,26.95,29.62,5.94,29.88,1004.80,2048.05,2865.86,2878.35,3124.97,349.76,317.51,34.09,0000 0000 0000 0000 000000
2013-10-15 02:30:12,0.11,1.66,0.00,25.29,26.95,29.66,5.83,29.67,1004.82,2048.04,2865.62,2878.14,3124.92,349.76,317.53,34.10,0000 0000 0000 0000 000000
2013-10-15 02:31:12,0.11,1.66,0.00,25.28,26.95,29.64,5.68,29.63,1004.86,2048.04,2865.31,2878.05,3124.65,349.28,317.05,34.10,0000 0000 0000 0000 000000
2013-10-15 02:32:13,0.12,1.66,0.00,25.29,26.95,29.70,5.87,30.00,1004.81,2048.04,2865.12,2878.01,3124.32,350.35,318.14,34.11,0000 0000 0000 0000 000000
2013-10-15 02:33:13,0.07,1.66,0.00,25.29,26.96,29.64,5.89,29.83,1004.78,2048.01,2865.04,2877.98,3124.12,349.90,317.89,34.12,0000 0000 0000 0000 000000
2013-10-15 02:34:13,0.03,1.66,0.00,25.30,26.97,29.63,5.81,29.88,1004.72,2048.02,2864.99,2877.97,3124.04,349.23,317.02,34.12,0000 0000 0000 0000 000000
2013-10-15 02:35:13,0.01,1.66,0.00,25.31,26.97,29.63,6.00,29.96,1004.67,2048.04,2864.96,2877.95,3124.01,350.45,318.09,34.13,0000 0000 0000 0000 000000
2013-10-15 02:36:14,0.04,1.66,0.00,25.30,26.97,29.70,5.95,30.08,1004.64,2048.03,2864.74,2877.71,3124.00,350.01,317.69,34.13,0000 0000 0000 0000 000000